Date,TemperatureHighF,TemperatureAvgF,TemperatureLowF,DewpointHighF,DewpointAvgF,DewpointLowF,HumidityHigh,HumidityAvg,HumidityLow,PressureMaxIn,PressureMinIn,WindSpeedMaxMPH,WindSpeedAvgMPH,GustSpeedMaxMPH,PrecipitationSumIn
2013-8-1,80,69,61,68,63,60,98,84,59,29.40,29.23,5,0,9,0.01
2013-8-2,80,71,64,71,66,63,98,85,60,29.23,29.14,4,0,7,0.19
2013-8-3,75,68,63,68,65,62,97,88,74,29.23,29.14,4,0,9,0.06
2013-8-4,78,67,57,66,60,56,97,80,55,29.25,29.13,6,0,9,0.00
2013-8-5,74,64,56,58,54,48,95,72,41,29.40,29.25,11,1,13,0.00
2013-8-6,78,65,50,61,54,49,98,73,41,29.50,29.40,3,0,6,0.00
2013-8-7,78,66,56,64,58,52,98,77,43,29.54,29.47,6,0,10,0.00
2013-8-8,77,71,64,71,67,60,97,89,81,29.48,29.37,4,0,10,0.05
2013-8-9,74,73,70,74,71,70,98,96,91,29.39,29.12,6,1,10,1.86
2013-8-10,80,72,62,72,65,52,98,81,60,29.36,29.15,4,0,8,0.01
2013-8-11,77,66,53,62,57,51,97,74,47,29.44,29.36,4,0,6,0.00
2013-8-12,79,69,61,67,63,59,98,82,55,29.39,29.27,3,0,5,0.00
2013-8-13,73,67,63,69,65,62,97,93,75,29.28,29.04,3,0,7,0.01
2013-8-14,71,65,58,64,57,53,98,77,58,29.33,29.03,10,1,13,0.00
2013-8-15,74,64,54,60,56,51,94,77,49,29.48,29.33,3,0,6,0.00
2013-8-16,77,66,54,64,58,53,97,79,47,29.56,29.47,4,0,7,0.00
2013-8-17,80,68,56,66,60,54,97,78,49,29.63,29.55,3,0,6,0.00
2013-8-18,78,66,58,67,61,57,98,85,53,29.63,29.45,3,0,5,0.01
2013-8-19,79,69,58,68,63,57,96,83,58,29.45,29.32,2,0,7,0.00
2013-8-20,83,73,62,69,65,59,97,78,45,29.45,29.34,3,0,7,0.00
2013-8-21,85,73,62,71,66,61,97,80,53,29.50,29.39,3,0,5,0.00
2013-8-22,82,72,66,74,69,64,97,89,74,29.40,29.19,4,0,7,0.00
2013-8-23,79,70,59,69,64,58,96,82,54,29.46,29.17,4,0,13,0.00
2013-8-24,76,64,54,59,54,47,95,72,37,29.70,29.46,6,0,8,0.00
2013-8-25,80,67,55,66,56,50,98,73,36,29.72,29.55,4,0,7,0.00
2013-8-26,77,70,63,69,64,58,95,81,67,29.56,29.25,5,0,9,0.04
2013-8-27,79,70,65,73,69,64,98,94,78,29.25,29.17,2,0,7,0.76
2013-8-28,84,72,61,72,67,60,99,86,59,29.28,29.19,3,0,5,0.00
2013-8-29,67,64,60,66,63,59,98,95,90,29.41,29.28,4,0,9,0.00
2013-8-30,78,68,60,71,64,58,96,90,75,29.39,29.19,5,0,7,0.00
2013-8-31,78,73,68,73,71,67,98,92,83,29.20,29.15,6,0,8,0.00